Jackson, MS

2:38 AM CST on February 14, 2016 (GMT -0600)
Hawkins

Weather History for KHKS - March, 2014

Change the Weather History Date:

Thursday, March 20, 2014

  Actual Average (KJAN) Record (KJAN)
Temperature  
Mean Temperature 60 °F 58 °F  
Max Temperature 72 °F 70 °F 89 °F (1907)
Min Temperature 48 °F 46 °F 23 °F (1923)
Degree Days  
Heating Degree Days 6 8  
Month to date heating degree days 202  
Since 1 July heating degree days 2194  
Cooling Degree Days 0 1  
Month to date cooling degree days 17  
Year to date cooling degree days 27  
Growing Degree Days 10 (Base 50)    
Moisture  
Dew Point 35 °F    
Average Humidity 46    
Maximum Humidity 74    
Minimum Humidity 18    
Precipitation  
Precipitation 0.00 in 0.15 in 2.56 in (2005)
Month to date precipitation 3.20  
Year to date precipitation 12.93  
Sea Level Pressure  
Sea Level Pressure 30.12 in    
Wind  
Wind Speed 2 mph (NNE)    
Max Wind Speed 12 mph    
Max Gust Speed 17 mph    
Visibility 10 miles    
Events      
T = Trace of Precipitation, MM = Missing Value Source: NWS Daily Summary

Daily Weather History Graph

Daily Weather History Graph

Search for Another Location

Airport or City:

Trip Planner

Search our weather history database for the weather conditions in past years. The results will help you decide how hot, cold, wet, or windy it might be!

Date:

Astronomy

Mar. 20, 2014 Rise Set
Actual Time 7:04 AM CDT 7:12 PM CDT
Civil Twilight 6:40 AM CDT 7:36 PM CDT
Nautical Twilight 6:11 AM CDT 8:05 PM CDT
Astronomical Twilight 5:42 AM CDT 8:34 PM CDT
Moon 11:17 PM CDT (3/20) 9:24 AM CDT (3/20)
Length of Visible Light 12h 56m
Length of Day
12h 07m
Waning Gibbous, 84% of the Moon is Illuminated
Mar 20
Waning Gibbous
Mar 23
Last Quarter
Mar 30
New
Apr 7
First Quarter
Apr 15
Full

Hourly Weather History & Observations

Time (CDT) Temp. Dew Point Humidity Pressure Visibility Wind Dir Wind Speed Gust Speed Precip Events Conditions
12:53 AM 53.1 °F 39.9 °F 61% 30.11 in 10.0 mi Calm Calm - N/A   Clear
1:53 AM 52.0 °F 41.0 °F 66% 30.12 in 10.0 mi Calm Calm - N/A   Clear
2:53 AM 50.0 °F 39.9 °F 68% 30.12 in 10.0 mi NW 3.5 mph - N/A   Clear
3:53 AM 48.9 °F 41.0 °F 74% 30.12 in 10.0 mi Calm Calm - N/A   Clear
4:53 AM 50.0 °F 39.9 °F 68% 30.14 in 10.0 mi Calm Calm - N/A   Clear
5:53 AM 50.0 °F 39.0 °F 66% 30.16 in 10.0 mi North 3.5 mph - N/A   Clear
6:53 AM 48.0 °F 39.0 °F 71% 30.16 in 10.0 mi NNE 3.5 mph - N/A   Clear
7:53 AM 48.9 °F 39.0 °F 69% 30.18 in 10.0 mi North 3.5 mph - N/A   Clear
8:53 AM 53.1 °F 39.0 °F 59% 30.18 in 10.0 mi ENE 5.8 mph - N/A   Clear
9:53 AM 57.9 °F 37.0 °F 46% 30.19 in 10.0 mi NE 11.5 mph 17.3 mph N/A   Clear
10:53 AM 59.0 °F 35.1 °F 41% 30.19 in 10.0 mi East 9.2 mph - N/A   Clear
11:53 AM 62.1 °F 34.0 °F 35% 30.19 in 10.0 mi Variable 4.6 mph - N/A   Clear
12:53 PM 64.0 °F 33.1 °F 31% 30.17 in 10.0 mi Variable 3.5 mph - N/A   Clear
1:53 PM 66.9 °F 32.0 °F 27% 30.13 in 10.0 mi Variable 5.8 mph - N/A   Clear
2:53 PM 68.0 °F 32.0 °F 26% 30.11 in 10.0 mi Variable 3.5 mph - N/A   Clear
3:53 PM 70.0 °F 28.9 °F 22% 30.09 in 10.0 mi Variable 3.5 mph - N/A   Clear
4:53 PM 71.1 °F 25.0 °F 18% 30.07 in 10.0 mi NNW 4.6 mph - N/A   Clear
5:53 PM 70.0 °F 24.1 °F 18% 30.07 in 10.0 mi ENE 4.6 mph - N/A   Clear
6:53 PM 68.0 °F 26.1 °F 21% 30.06 in 10.0 mi Calm Calm - N/A   Clear
7:53 PM 61.0 °F 28.9 °F 30% 30.06 in 10.0 mi Calm Calm - N/A   Clear
8:53 PM 57.9 °F 30.9 °F 36% 30.07 in 10.0 mi Calm Calm - N/A   Clear
9:53 PM 54.0 °F 33.1 °F 45% 30.08 in 10.0 mi Calm Calm - N/A   Clear
10:53 PM 51.1 °F 35.1 °F 54% 30.08 in 10.0 mi Calm Calm - N/A   Clear
11:53 PM 50.0 °F 35.1 °F 57% 30.07 in 10.0 mi Calm Calm - N/A   Clear